{"data":{"norad_id":59106,"intl_designator":"2024-043J","name":"RROCI-2","alt_names":[],"object_type":"PAYLOAD","status":"ACTIVE","operator":null,"country":"US","launch_date":"2024-03-04","launch_site_code":"AFWTR","launch_vehicle":null,"mission":null,"orbit_class":"UNKNOWN","rcs_meters":null,"size_class":null,"mass_kg":null,"dimensions":null,"purposes":[],"wikipedia_slug":null,"has_3d_model":false,"image_url":null,"decayed_at":null,"tle_current":{"epoch":"2026-05-24T21:40:27.498720Z","epoch_age_seconds":77359,"freshness":"FRESH","line1":"1 59106U 24043J   26144.90309605  .00002111  00000+0  17552-3 0  9990","line2":"2 59106  97.8409 277.4809 0010215  95.5990 264.6398 14.99785973121276","mean_motion":14.99785973,"eccentricity":0.0010215,"inclination_deg":97.8409,"raan_deg":277.4809,"arg_perigee_deg":95.599,"mean_anomaly_deg":264.6398,"bstar":0.00017552,"rev_number":12127,"period_min":96.013699682735,"perigee_km":560.46203091429,"apogee_km":574.65208387355,"semimajor_km":6945.6940573939,"source":"CELESTRAK","updated_at":"2026-05-25T13:38:01.191012Z"}}}